Torna al catalogo

STARLINK-32774

AttivoComunicazioniVLEO
NORAD 62737·PAYLOAD·🇺🇸 United States

Lanciato Jan 21, 2025 da Cape Canaveral Space Force Station

Loading…

Prossimi Passaggi (prossime 24 ore)

TLE

AggiornatoSource: CelesTrak SupGP

Epoca: Sep 15, 2026, 02:07 UTC

1 62737C 25014C   26258.08868056 -.00025987  00000+0 -94152-3 0  2585
2 62737  43.0026 167.9999 0001345 276.0123 175.6138 15.27581865    16

Traccia STARLINK-32774 in tempo reale con AllMySat

Download on the App Store